EW9178 Weather Reports


time (UTC)temp
F
wind
direction
speed
knots
gust
knots
rain 1hr
in
rain 24hr
in
rain mn
in
humidity
%
barometer
mb
20260507062526 53 63 1.7 3.5 0.00 0.00 0.00 71 1015.0
20260507061557 53 96 0.9 1.7 0.00 0.00 0.00 71 1015.0
20260507060526 53 62 0.9 3.5 0.00 0.00 0.00 72 1015.0
20260507055538 51 86 0.0 2.6 0.00 0.00 0.00 74 1015.0
20260507054550 49 87 0.0 2.6 0.00 0.00 0.00 78 1014.8
20260507053516 50 80 0.0 2.6 0.00 0.00 0.00 78 1014.8
20260507052525 47 0.0 0.0 0.00 0.00 0.00 88 1014.7
20260507051516 44 0.0 0.0 0.00 0.00 0.00 91 1014.6
20260507050525 43 0.0 0.0 0.00 0.00 0.00 91 1014.5
20260507045516 42 0.0 0.0 0.00 0.00 0.00 91 1014.4
20260507044525 43 0.0 0.0 0.00 0.00 0.00 91 1014.3
20260507043532 42 0.0 0.0 0.00 0.00 0.00 91 1014.3
20260507042523 42 0.0 0.0 0.00 0.00 0.00 91 1014.3
20260507041532 42 0.0 0.0 0.00 0.00 0.00 90 1014.2
20260507040523 42 0.0 0.0 0.00 0.00 0.00 90 1014.1
20260507035532 42 0.0 0.0 0.00 0.00 0.00 89 1013.9
20260507034523 43 0.0 0.0 0.00 0.00 0.00 89 1013.9
20260507033532 43 0.0 0.0 0.00 0.00 0.00 89 1013.8
20260507032523 43 0.0 0.0 0.00 0.00 0.00 89 1013.8
20260507031530 44 0.0 0.0 0.00 0.00 0.00 88 1013.7
20260507030523 44 0.0 0.0 0.00 0.00 0.00 88 1013.6
20260507025530 44 0.0 0.0 0.00 0.00 0.00 88 1013.7
20260507024523 45 92 0.0 0.9 0.00 0.00 0.00 87 1013.6
20260507023530 45 116 0.0 0.9 0.00 0.00 0.00 87 1013.7
20260507022523 44 0.0 0.0 0.00 0.00 0.00 87 1013.5
20260507021530 45 0.0 0.0 0.00 0.00 0.00 88 1013.5
20260507020523 44 0.0 0.0 0.00 0.00 0.00 88 1013.5
20260507015530 44 0.0 0.0 0.00 0.00 0.00 88 1013.5
20260507014524 44 0.0 0.0 0.00 0.00 0.00 88 1013.3
20260507013530 45 79 0.0 0.9 0.00 0.00 0.00 87 1013.3
20260507012606 44 0.0 0.0 0.00 0.00 0.00 87 1013.2
20260507011710 44 354 0.0 0.9 0.00 0.00 0.00 87 1013.2
20260507010521 44 0.0 0.0 0.00 0.00 0.00 86 1013.2
20260507005530 45 77 0.0 0.9 0.00 0.00 0.00 86 1013.3
20260507004526 45 16 0.0 0.9 0.00 0.00 0.00 85 1013.3
20260507003530 46 43 0.0 0.9 0.00 0.00 0.00 85 1013.4
20260507002521 46 80 0.0 0.9 0.00 0.00 0.00 84 1013.3
20260507001529 46 59 0.0 0.9 0.00 0.00 0.00 84 1013.2
20260507000522 46 108 0.0 1.7 0.00 0.00 0.00 85 1013.1
20260506235529 46 92 0.0 0.9 0.00 0.00 0.00 84 1013.2
20260506234550 46 56 0.0 0.9 0.00 0.00 0.00 84 1013.2
20260506233549 47 56 0.0 1.7 0.00 0.00 0.00 83 1013.2
20260506232525 47 73 0.0 1.7 0.00 0.00 0.00 83 1013.2
20260506231529 47 50 0.0 0.9 0.00 0.00 0.00 82 1013.2
20260506230520 47 146 0.0 0.9 0.00 0.00 0.00 81 1013.1
20260506225528 48 99 0.0 0.9 0.00 0.00 0.00 81 1013.2
20260506224559 48 52 0.0 0.9 0.00 0.00 0.00 80 1013.0
20260506223526 49 68 0.0 1.7 0.00 0.00 0.00 79 1013.0
20260506222539 49 81 0.9 2.6 0.00 0.00 0.00 79 1012.9
20260506221526 50 75 0.9 5.2 0.00 0.00 0.00 78 1012.8
20260506220519 50 71 0.9 2.6 0.00 0.00 0.00 78 1012.8
20260506215525 50 63 0.9 5.2 0.00 0.00 0.00 77 1012.7
20260506214517 50 68 1.7 3.5 0.00 0.00 0.00 76 1012.7
20260506213551 50 67 0.9 2.6 0.00 0.00 0.00 75 1012.6
20260506212517 51 73 0.9 2.6 0.00 0.00 0.00 74 1012.5
20260506211546 51 70 0.9 3.5 0.00 0.00 0.00 73 1012.4
20260506210517 51 80 0.9 2.6 0.00 0.00 0.00 73 1012.3
20260506205525 51 58 0.9 2.6 0.00 0.00 0.00 73 1012.2
20260506204517 52 86 0.9 1.7 0.00 0.00 0.00 73 1012.1
20260506203551 52 51 1.7 3.5 0.00 0.00 0.00 72 1012.1
20260506202517 53 85 0.9 2.6 0.00 0.00 0.00 71 1012.0
20260506201524 53 71 1.7 3.5 0.00 0.00 0.00 69 1011.9
20260506200517 53 68 0.0 2.6 0.00 0.00 0.00 68 1011.9
20260506195524 53 69 1.7 5.2 0.00 0.00 0.00 67 1011.8
20260506194517 53 69 0.9 2.6 0.00 0.00 0.00 66 1011.7
20260506193524 53 75 1.7 5.2 0.00 0.00 0.00 66 1011.6
20260506191516 54 58 1.7 7.0 0.00 0.00 0.00 67 1011.3
20260506190525 54 92 0.0 1.7 0.00 0.00 0.00 68 1011.1
20260506185528 54 63 1.7 5.2 0.00 0.00 0.00 67 1010.9
20260506184521 54 58 2.6 7.0 0.00 0.00 0.00 68 1010.9
20260506183548 54 67 2.6 7.8 0.00 0.00 0.00 68 1010.7
20260506182545 55 83 1.7 6.1 0.00 0.00 0.00 68 1010.8
20260506181527 55 75 1.7 3.5 0.00 0.00 0.00 68 1010.6
20260506180520 55 67 1.7 7.8 0.00 0.00 0.00 67 1010.5
20260506175527 55 92 1.7 5.2 0.00 0.00 0.00 60 1010.4
20260506174520 56 82 0.9 0.9 0.00 0.00 0.00 58 1010.1
20260506173527 55 60 0.9 1.7 0.00 0.00 0.00 57 1010.1
20260506172518 56 74 0.9 1.7 0.00 0.00 0.00 56 1010.1
20260506171527 56 53 0.9 1.7 0.00 0.00 0.00 56 1010.0
20260506170518 56 84 0.0 1.7 0.00 0.00 0.00 56 1009.8
20260506165528 55 59 1.7 7.0 0.00 0.00 0.00 56 1009.8
20260506164519 56 79 1.7 5.2 0.00 0.00 0.00 57 1010.0
20260506163548 56 33 1.7 5.2 0.00 0.00 0.00 57 1009.9
20260506162519 56 54 1.7 5.2 0.00 0.00 0.00 56 1009.8
20260506161526 57 62 1.7 5.2 0.00 0.00 0.00 55 1009.7
20260506160519 57 80 0.9 6.1 0.00 0.00 0.00 53 1009.8
20260506155526 57 74 1.7 6.1 0.00 0.00 0.00 53 1009.8
20260506154517 57 79 1.7 3.5 0.00 0.00 0.00 52 1009.7
20260506153526 57 62 1.7 7.0 0.00 0.00 0.00 52 1009.7
20260506152517 57 77 1.7 6.1 0.00 0.00 0.00 50 1009.7
20260506151526 57 64 0.9 3.5 0.00 0.00 0.00 49 1009.6
20260506150517 57 76 1.7 3.5 0.00 0.00 0.00 50 1009.6
20260506145526 57 49 1.7 6.1 0.00 0.00 0.00 50 1009.6
20260506144538 57 63 0.9 5.2 0.00 0.00 0.00 50 1009.6
20260506143524 57 42 1.7 6.1 0.00 0.00 0.00 49 1009.6
20260506142517 57 51 1.7 3.5 0.00 0.00 0.00 48 1009.5
20260506141526 58 63 1.7 3.5 0.00 0.00 0.00 47 1009.5
20260506140517 57 117 1.7 5.2 0.00 0.00 0.00 47 1009.4
20260506135546 58 52 1.7 3.5 0.00 0.00 0.00 47 1009.5
20260506134517 58 35 1.7 5.2 0.00 0.00 0.00 46 1009.4
20260506133524 58 106 1.7 7.8 0.00 0.00 0.00 45 1009.3
20260506132517 58 37 1.7 6.1 0.00 0.00 0.00 45 1009.4
20260506131525 58 54 1.7 6.1 0.00 0.00 0.00 46 1009.4
20260506130516 58 48 1.7 3.5 0.00 0.00 0.00 45 1009.4
20260506125543 58 40 1.7 7.0 0.00 0.00 0.00 46 1009.2
20260506124532 58 79 1.7 7.0 0.00 0.00 0.00 46 1009.3
20260506123523 57 77 0.9 2.6 0.00 0.00 0.00 48 1009.3
20260506122530 57 87 1.7 5.2 0.00 0.00 0.00 48 1009.3
20260506121543 57 41 2.6 6.1 0.00 0.00 0.00 48 1009.2
20260506120530 58 45 1.7 6.1 0.00 0.00 0.00 48 1009.1
20260506115523 57 55 1.7 5.2 0.00 0.00 0.00 49 1009.2
20260506114530 57 60 1.7 5.2 0.00 0.00 0.00 48 1009.2
20260506113523 57 42 1.7 6.1 0.00 0.00 0.00 49 1009.1
20260506112530 57 71 1.7 3.5 0.00 0.00 0.00 49 1009.2
20260506102023 56 74 2.6 6.1 0.00 0.00 0.00 55 1009.0
20260506101032 56 39 1.7 6.1 0.00 0.00 0.00 62 1008.8
20260506100023 55 84 2.6 7.8 0.00 0.00 0.00 66 1008.9
20260506095030 54 78 0.9 5.2 0.00 0.00 0.00 69 1008.9
20260506094024 54 100 1.7 3.5 0.00 0.00 0.00 71 1008.8
20260506093051 54 69 1.7 5.2 0.00 0.00 0.00 73 1008.7
20260506092042 54 84 3.5 9.6 0.00 0.00 0.00 73 1008.7
20260506091031 54 77 1.7 7.0 0.00 0.00 0.00 74 1008.7
20260506090022 54 92 1.7 6.1 0.00 0.00 0.00 74 1008.7
20260506085031 54 61 2.6 6.1 0.00 0.00 0.00 74 1008.7
20260506084042 54 79 2.6 7.0 0.00 0.00 0.00 74 1008.6
20260506083031 54 63 2.6 6.1 0.00 0.00 0.00 73 1008.7
20260506082042 55 59 2.6 7.0 0.00 0.00 0.00 71 1008.5
20260506081031 55 83 1.7 6.1 0.00 0.00 0.00 68 1008.6
20260506073028 55 76 1.7 7.0 0.00 0.00 0.00 64 1008.4
20260506072021 54 53 0.9 2.6 0.00 0.00 0.00 66 1008.4
20260506071028 54 62 0.9 2.6 0.00 0.00 0.00 67 1008.3